TimeCST,TemperatureF,Dew PointF,Humidity,Sea Level PressureIn,VisibilityMPH,Wind Direction,Wind SpeedMPH,Gust SpeedMPH,PrecipitationIn,Events,Conditions,WindDirDegrees,DateUTC
12:53 AM,12.9,7.0,77,30.20,10.0,SE,10.4,-,N/A,,Overcast,130,2012-12-27 06:53:00
1:53 AM,12.9,7.0,77,30.20,10.0,SE,10.4,-,N/A,,Overcast,140,2012-12-27 07:53:00
2:53 AM,12.0,6.1,77,30.20,10.0,ESE,8.1,-,N/A,,Overcast,120,2012-12-27 08:53:00
3:53 AM,12.9,7.0,77,30.18,10.0,SE,12.7,-,N/A,,Overcast,130,2012-12-27 09:53:00
4:53 AM,14.0,8.1,77,30.17,10.0,SE,13.8,-,N/A,,Overcast,130,2012-12-27 10:53:00
5:53 AM,14.0,10.0,84,30.17,10.0,SE,12.7,-,N/A,,Overcast,140,2012-12-27 11:53:00
6:53 AM,15.1,10.9,84,30.17,10.0,SE,10.4,-,N/A,,Overcast,130,2012-12-27 12:53:00
7:26 AM,15.8,12.2,86,30.09,1.8,SE,10.4,-,0.00,Snow,Light Snow,130,2012-12-27 13:26:00
7:34 AM,15.8,12.2,86,30.09,1.0,SE,10.4,-,0.00,Snow,Light Snow,130,2012-12-27 13:34:00
7:44 AM,15.8,12.2,86,30.10,3.0,SE,9.2,-,0.00,Snow,Light Snow,140,2012-12-27 13:44:00
7:50 AM,15.8,12.2,86,30.10,1.8,SE,11.5,-,0.00,Snow,Light Snow,130,2012-12-27 13:50:00
7:53 AM,16.0,12.0,84,30.18,1.5,SE,10.4,-,0.00,Snow,Light Snow,130,2012-12-27 13:53:00
8:13 AM,15.8,12.2,86,30.10,1.0,SE,8.1,-,0.00,Snow,Light Snow,130,2012-12-27 14:13:00
8:24 AM,15.8,12.2,86,30.09,0.5,ESE,8.1,-,0.00,Fog-Snow,Snow,120,2012-12-27 14:24:00
8:43 AM,15.8,12.2,86,30.09,0.8,ESE,8.1,-,0.00,Snow,Light Snow,120,2012-12-27 14:43:00
8:53 AM,16.0,12.9,88,30.17,0.8,ESE,10.4,-,0.00,Snow,Light Snow,110,2012-12-27 14:53:00
9:07 AM,15.8,12.2,86,30.09,1.2,ESE,10.4,-,0.00,Snow,Light Snow,110,2012-12-27 15:07:00
9:20 AM,15.8,12.2,86,30.09,2.0,ESE,11.5,-,0.00,Snow,Light Snow,110,2012-12-27 15:20:00
9:24 AM,15.8,12.2,86,30.09,1.8,ESE,12.7,-,0.00,Snow,Light Snow,120,2012-12-27 15:24:00
9:50 AM,15.8,12.2,86,30.09,1.5,ESE,13.8,-,0.00,Snow,Light Snow,120,2012-12-27 15:50:00
9:53 AM,16.0,12.0,84,30.17,1.2,ESE,13.8,-,0.00,Snow,Light Snow,120,2012-12-27 15:53:00
10:53 AM,17.1,12.9,84,30.16,1.5,ESE,12.7,-,0.00,Snow,Light Snow,110,2012-12-27 16:53:00
11:04 AM,17.6,12.2,79,30.08,2.0,ESE,12.7,-,0.00,Snow,Light Snow,110,2012-12-27 17:04:00
11:13 AM,17.6,12.2,79,30.08,1.5,ESE,9.2,-,0.00,Snow,Light Snow,120,2012-12-27 17:13:00
11:25 AM,17.6,12.2,79,30.08,1.5,ESE,9.2,-,0.00,Snow,Light Snow,120,2012-12-27 17:25:00
11:51 AM,17.6,14.0,86,30.07,0.5,ESE,11.5,-,0.00,Fog-Snow,Snow,120,2012-12-27 17:51:00
11:52 AM,18.0,14.0,84,30.14,0.5,ESE,10.4,-,0.00,Fog-Snow,Snow,120,2012-12-27 17:52:00
12:20 PM,17.6,15.8,93,30.06,1.0,ESE,10.4,-,0.00,Snow,Light Snow,120,2012-12-27 18:20:00
12:53 PM,19.0,15.1,85,30.12,1.0,ESE,8.1,-,0.00,Snow,Light Snow,120,2012-12-27 18:53:00
1:03 PM,19.4,15.8,86,30.04,0.5,ESE,11.5,-,0.00,Fog-Snow,Snow,120,2012-12-27 19:03:00
1:30 PM,19.4,15.8,86,30.03,1.0,ESE,9.2,-,0.00,Snow,Light Snow,110,2012-12-27 19:30:00
1:38 PM,19.4,15.8,86,30.03,0.8,ESE,9.2,-,0.00,Snow,Light Snow,110,2012-12-27 19:38:00
1:48 PM,19.4,15.8,86,30.03,1.0,ESE,9.2,-,0.00,Snow,Light Snow,120,2012-12-27 19:48:00
1:53 PM,19.0,15.1,85,30.10,1.2,ESE,11.5,-,0.00,Snow,Light Snow,110,2012-12-27 19:53:00
2:04 PM,19.4,15.8,86,30.03,1.5,East,9.2,-,0.00,Snow,Light Snow,100,2012-12-27 20:04:00
2:15 PM,19.4,15.8,86,30.02,1.8,ESE,11.5,-,0.00,Snow,Light Snow,120,2012-12-27 20:15:00
2:53 PM,19.9,16.0,85,30.10,1.8,ESE,10.4,-,0.00,Snow,Light Snow,110,2012-12-27 20:53:00
3:07 PM,19.4,15.8,86,30.02,2.5,ESE,10.4,-,0.00,Snow,Light Snow,110,2012-12-27 21:07:00
3:16 PM,19.4,15.8,86,30.02,3.0,ESE,10.4,-,0.00,Snow,Light Snow,110,2012-12-27 21:16:00
3:34 PM,19.4,15.8,86,30.02,2.5,ESE,10.4,-,0.00,Snow,Light Snow,110,2012-12-27 21:34:00
3:53 PM,19.9,16.0,85,30.09,2.5,ESE,9.2,-,0.00,Snow,Light Snow,110,2012-12-27 21:53:00
4:53 PM,19.9,16.0,85,30.10,2.5,East,8.1,-,0.00,Snow,Light Snow,100,2012-12-27 22:53:00
5:23 PM,19.4,15.8,86,30.03,3.0,East,10.4,-,0.00,Snow,Light Snow,90,2012-12-27 23:23:00
5:50 PM,19.4,15.8,86,30.03,2.5,East,9.2,-,0.00,Snow,Light Snow,90,2012-12-27 23:50:00
5:53 PM,19.0,16.0,88,30.11,3.0,East,9.2,-,0.00,Snow,Light Snow,90,2012-12-27 23:53:00
6:53 PM,19.9,16.0,85,30.12,4.0,East,9.2,-,0.00,Snow,Light Snow,90,2012-12-28 00:53:00
7:03 PM,19.4,15.8,86,30.05,2.5,East,9.2,-,0.00,Snow,Light Snow,90,2012-12-28 01:03:00
7:26 PM,19.4,15.8,86,30.05,3.0,East,9.2,-,0.00,Snow,Light Snow,90,2012-12-28 01:26:00
7:53 PM,19.0,16.0,88,30.12,4.0,East,8.1,-,0.00,Snow,Light Snow,80,2012-12-28 01:53:00
8:53 PM,19.0,16.0,88,30.12,3.0,ESE,8.1,-,0.00,Snow,Light Snow,110,2012-12-28 02:53:00
9:00 PM,19.4,15.8,86,30.05,2.5,East,8.1,-,0.00,Snow,Light Snow,100,2012-12-28 03:00:00
9:22 PM,19.4,15.8,86,30.05,1.8,East,6.9,-,0.00,Snow,Light Snow,100,2012-12-28 03:22:00
9:35 PM,19.4,15.8,86,30.05,2.0,East,5.8,-,0.00,Snow,Light Snow,90,2012-12-28 03:35:00
9:51 PM,19.4,15.8,86,30.05,2.5,East,4.6,-,0.00,Snow,Light Snow,90,2012-12-28 03:51:00
9:53 PM,19.0,16.0,88,30.12,2.5,East,5.8,-,0.00,Snow,Light Snow,90,2012-12-28 03:53:00
10:16 PM,19.4,15.8,86,30.05,2.5,East,4.6,-,0.00,Snow,Light Snow,90,2012-12-28 04:16:00
10:53 PM,18.0,15.1,88,30.12,2.5,East,5.8,-,0.00,Snow,Light Snow,80,2012-12-28 04:53:00
11:34 PM,17.6,14.0,86,30.04,3.0,ENE,5.8,-,0.00,Snow,Light Snow,70,2012-12-28 05:34:00
11:53 PM,17.1,14.0,88,30.12,3.0,NE,5.8,-,0.00,Snow,Light Snow,50,2012-12-28 05:53:00